TimePST,TemperatureF,Dew PointF,Humidity,Sea Level PressureIn,VisibilityMPH,Wind Direction,Wind SpeedMPH,Gust SpeedMPH,PrecipitationIn,Events,Conditions,WindDirDegrees,DateUTC
12:56 AM,23.0,19.9,88,29.99,10.0,South,5.8,-,N/A,,Scattered Clouds,170,2012-12-13 08:56:00
1:56 AM,23.0,21.0,92,29.99,10.0,South,4.6,-,N/A,,Mostly Cloudy,170,2012-12-13 09:56:00
2:56 AM,21.9,19.9,92,30.01,10.0,Calm,Calm,-,N/A,,Partly Cloudy,0,2012-12-13 10:56:00
3:56 AM,24.1,21.0,88,30.01,10.0,SSE,3.5,-,N/A,,Overcast,160,2012-12-13 11:56:00
4:56 AM,24.1,21.0,88,30.01,10.0,Calm,Calm,-,N/A,,Overcast,0,2012-12-13 12:56:00
5:56 AM,19.9,17.1,89,30.04,10.0,Calm,Calm,-,N/A,,Clear,0,2012-12-13 13:56:00
6:56 AM,17.1,14.0,88,30.06,10.0,Calm,Calm,-,N/A,,Clear,0,2012-12-13 14:56:00
7:56 AM,16.0,14.0,92,30.06,10.0,Calm,Calm,-,N/A,,Clear,0,2012-12-13 15:56:00
8:56 AM,25.0,23.0,92,30.04,10.0,South,4.6,-,N/A,,Clear,170,2012-12-13 16:56:00
9:56 AM,30.9,27.0,85,30.02,10.0,South,3.5,-,N/A,,Clear,190,2012-12-13 17:56:00
10:56 AM,34.0,26.1,73,30.01,10.0,SSE,5.8,-,N/A,,Clear,160,2012-12-13 18:56:00
11:56 AM,37.0,25.0,62,29.96,10.0,South,4.6,-,N/A,,Clear,180,2012-12-13 19:56:00
12:56 PM,37.9,23.0,55,29.93,10.0,Variable,3.5,-,N/A,,Clear,0,2012-12-13 20:56:00
1:56 PM,39.9,21.9,49,29.91,10.0,SE,3.5,-,N/A,,Clear,140,2012-12-13 21:56:00
4:56 PM,30.9,21.9,69,29.88,10.0,SE,3.5,-,N/A,,Clear,130,2012-12-14 00:56:00
5:56 PM,28.0,19.9,72,29.89,10.0,SSE,4.6,-,N/A,,Clear,160,2012-12-14 01:56:00
6:56 PM,28.0,21.0,75,29.88,10.0,SSE,6.9,-,N/A,,Clear,160,2012-12-14 02:56:00
7:56 PM,25.0,19.9,81,29.88,10.0,Calm,Calm,-,N/A,,Clear,0,2012-12-14 03:56:00
8:56 PM,26.1,19.0,75,29.85,10.0,SSE,5.8,-,N/A,,Clear,160,2012-12-14 04:56:00
9:56 PM,28.0,19.0,69,29.83,10.0,SSE,9.2,-,N/A,,Clear,150,2012-12-14 05:56:00
10:56 PM,27.0,19.0,72,29.83,10.0,SSE,5.8,-,N/A,,Clear,160,2012-12-14 06:56:00
11:56 PM,28.0,19.0,69,29.81,10.0,SE,5.8,-,N/A,,Clear,140,2012-12-14 07:56:00